WetterOnline ( https://www.wetteronline.de )

Wetter aktuell Emmendingen

Aktuelles Wetter: Freiburg/Flugplatz (236m)

6-stündlich | Neueste Meldungen
Ortszeit Temperatur Wetter
Di, 04.08. 2:00 15.1° C bedeckt
Mo, 03.08. 20:00 16.0° C leichter Regen
Mo, 03.08. 14:00 23.3° C wolkig
Mo, 03.08. 8:00 17.6° C bedeckt
Mo, 03.08. 2:00 17.6° C bedeckt
So, 02.08. 20:00 20.9° C wolkig
So, 02.08. 14:00 20.2° C leichter Regen
So, 02.08. 8:00 19.5° C bedeckt
Ortszeit Temperatur Wetter
Di, 04.08. 5:00 14.8° C Sprühregen
Di, 04.08. 4:50 14.8° C Sprühregen
Di, 04.08. 4:40 14.8° C leichter Regen
Di, 04.08. 4:30 14.7° C Sprühregen
Di, 04.08. 4:20 14.7° C Sprühregen
Di, 04.08. 4:10 14.6° C Sprühregen
Di, 04.08. 4:00 14.6° C Sprühregen
Di, 04.08. 3:30 14.7° C leichter Regen
Di, 04.08. 3:00 14.7° C bewölkt
Di, 04.08. 2:30 15.0° C wolkig
Di, 04.08. 2:00 15.1° C bedeckt
Ortszeit Relative Feuchte Sichtweite
Di, 04.08. 2:00 95% 9 km
Mo, 03.08. 20:00 86% 13 km
Mo, 03.08. 14:00 52% 30 km
Mo, 03.08. 8:00 89% 25 km
Mo, 03.08. 2:00 96% 19 km
So, 02.08. 20:00 77% 40 km
So, 02.08. 14:00 85% 10 km
So, 02.08. 8:00 87% 35 km
Ortszeit Relative Feuchte Sichtweite
Di, 04.08. 5:00 96% 4.8 km
Di, 04.08. 4:50 96% -
Di, 04.08. 4:40 97% -
Di, 04.08. 4:30 98% 3.2 km
Di, 04.08. 4:20 98% -
Di, 04.08. 4:10 97% -
Di, 04.08. 4:00 97% 3.5 km
Di, 04.08. 3:30 96% 6 km
Di, 04.08. 3:00 95% 7 km
Di, 04.08. 2:30 94% 12 km
Di, 04.08. 2:00 95% 9 km
Ortszeit Niederschlagsmenge Niederschlagsart
Di, 04.08. 2:00 4 l/m2 in 6 Std. Regen
Mo, 03.08. 20:00 18 l/m2 in 12 Std. Regenschauer
Mo, 03.08. 14:00 0.0 l/m2 in 6 Std. -
Mo, 03.08. 8:00 0.0 l/m2 in 12 Std. -
Mo, 03.08. 2:00 0.0 l/m2 in 6 Std. -
So, 02.08. 20:00 16 l/m2 in 12 Std. Regenschauer
So, 02.08. 14:00 0.1 l/m2 in 6 Std. Regen
So, 02.08. 8:00 6 l/m2 in 12 Std. -
Ortszeit Niederschlagsmenge Niederschlagsart
Di, 04.08. 5:00 0.4 l/m2 in 1 Std. Regen
Di, 04.08. 4:50 keine Meldung -
Di, 04.08. 4:40 keine Meldung -
Di, 04.08. 4:30 0.2 l/m2 in 1 Std. -
Di, 04.08. 4:20 keine Meldung -
Di, 04.08. 4:10 keine Meldung -
Di, 04.08. 4:00 0.2 l/m2 in 1 Std. Regen
Di, 04.08. 3:30 0.1 l/m2 in 1 Std. -
Di, 04.08. 3:00 0.0 l/m2 in 1 Std. -
Di, 04.08. 2:30 0.0 l/m2 in 1 Std. -
Di, 04.08. 2:00 0.1 l/m2 in 1 Std. Regen
Ortszeit Stärke Spitze Richtung
km/h Bft. km/h Grad Sektor
Di, 04.08. 2:00 4 1 14 30° NO
Mo, 03.08. 20:00 4 1 32 180° S
Mo, 03.08. 14:00 11 2 25 350° N
Mo, 03.08. 8:00 4 1 7 10° N
Mo, 03.08. 2:00 2 1 17 50° NO
So, 02.08. 20:00 7 2 22 160° S
So, 02.08. 14:00 11 2 25 360° N
So, 02.08. 8:00 4 1 29 320° NW
Ortszeit Stärke Spitze Richtung
km/h Bft. km/h Grad Sektor
Di, 04.08. 5:00 2 1 6 40° NO
Di, 04.08. 4:50 2 1 - 40° NO
Di, 04.08. 4:40 2 1 - 50° NO
Di, 04.08. 4:30 4 1 7 350° N
Di, 04.08. 4:20 4 1 - 350° N
Di, 04.08. 4:10 4 1 - 340° N
Di, 04.08. 4:00 4 1 7 330° NW
Di, 04.08. 3:30 4 1 7 290° W
Di, 04.08. 3:00 0 0 7 - -
Di, 04.08. 2:30 4 1 7 20° N
Di, 04.08. 2:00 4 1 11 30° NO
Ortszeit Untergrenze Bedeckung Gattung
total tief tief mittel hoch
Di, 04.08. 2:00 150 m 8/8 8/8 - - -
Mo, 03.08. 20:00 1350 m 8/8 8/8 - - -
Mo, 03.08. 14:00 4200 m 8/8 8/8 - - -
Mo, 03.08. 8:00 4800 m 8/8 8/8 - - -
Mo, 03.08. 2:00 3600 m 8/8 8/8 - - -
So, 02.08. 20:00 2100 m 8/8 2/8 - - -
So, 02.08. 14:00 660 m 8/8 8/8 - - -
So, 02.08. 8:00 3600 m 8/8 8/8 - - -
Ortszeit Bedeckungsgrad in Achtel und Wolkenuntergrenze
Di, 04.08. 5:00 3(90m) 7(990m) 8(2100m)
Di, 04.08. 4:50 3(90m) 7(990m) 8(2100m)
Di, 04.08. 4:40 5(90m) 7(960m) 7(2100m)
Di, 04.08. 4:30 2(60m) 7(1440m) 8(1800m)
Di, 04.08. 4:20 2(60m) 7(1440m) 8(1800m)
Di, 04.08. 4:10 2(150m) 7(1380m) 7(1500m)
Di, 04.08. 4:00 3(210m) 7(1290m) 8(1500m)
Di, 04.08. 3:30 2(1290m) 7(1800m) 8(2400m)
Di, 04.08. 3:00 5(2100m) 8(3300m) 8(3900m)
Di, 04.08. 2:30 1(1140m) 8(3000m)
Di, 04.08. 2:00 4(150m) 8(2100m) 8(2400m)
Ortszeit Luftdruck NN (hPa) Tendenz (hPa in 3 Std.)
Di, 04.08. 2:00 1013 + 0,2
Mo, 03.08. 20:00 1012 + 0,5
Mo, 03.08. 14:00 1010 - 1,5
Mo, 03.08. 8:00 1013 + 0,1
Mo, 03.08. 2:00 1014 - 0,2
So, 02.08. 20:00 1014 - 1,1
So, 02.08. 14:00 1015 - 0,1
So, 02.08. 8:00 1015 + 0,2
Ortszeit Luftdruck NN (hPa) Tendenz (hPa in 3 Std.)
Di, 04.08. 5:00 1014 + 0,5
Di, 04.08. 4:50 1014 keine Meldung
Di, 04.08. 4:40 1014 keine Meldung
Di, 04.08. 4:30 1014 + 0,2
Di, 04.08. 4:20 1014 keine Meldung
Di, 04.08. 4:10 1014 keine Meldung
Di, 04.08. 4:00 1014 + 0,2
Di, 04.08. 3:30 1014 + 0,1
Di, 04.08. 3:00 1013 0,0
Di, 04.08. 2:30 1013 0,0
Di, 04.08. 2:00 1013 + 0,2
Ortszeit Schneehöhe (cm)
Di, 04.08. 2:00 -
Mo, 03.08. 20:00 -
Mo, 03.08. 14:00 -
Mo, 03.08. 8:00 -
Mo, 03.08. 2:00 -
So, 02.08. 20:00 -
So, 02.08. 14:00 -
So, 02.08. 8:00 -
Ortszeit Schneehöhe (cm)
Di, 04.08. 5:00 -
Di, 04.08. 4:50 -
Di, 04.08. 4:40 -
Di, 04.08. 4:30 -
Di, 04.08. 4:20 -
Di, 04.08. 4:10 -
Di, 04.08. 4:00 -
Di, 04.08. 3:30 -
Di, 04.08. 3:00 -
Di, 04.08. 2:30 -
Di, 04.08. 2:00 -
Link zu dieser Seite / Seite empfehlen

Das Wetter in ...